Time,TemperatureF,DewpointF,PressureIn,WindDirection,WindDirectionDegrees,WindSpeedMPH,WindSpeedGustMPH,Humidity,HourlyPrecipIn,Conditions,Clouds,dailyrainin,SolarRadiationWatts/m^2,SoftwareType,DateUTC
2013-01-26 00:03:00,36.0,36.0,-100.00,NW,317,5.0,11.0,99,0.00,,,0.15,0.000000,,2013-01-26 05:03:00,
2013-01-26 00:33:00,35.0,35.0,-100.00,NW,320,4.0,7.0,99,0.00,,,0.15,0.000000,,2013-01-26 05:33:00,
2013-01-26 00:42:00,35.0,35.0,-100.00,NW,320,4.0,7.0,99,0.00,,,0.15,0.000000,,2013-01-26 05:42:00,
2013-01-26 00:53:00,35.0,35.0,-100.00,NW,320,4.0,7.0,99,0.00,,,0.15,0.000000,,2013-01-26 05:53:00,
2013-01-26 01:03:00,35.0,35.0,-100.00,NW,320,4.0,7.0,99,0.00,,,0.15,0.000000,,2013-01-26 06:03:00,
2013-01-26 01:32:00,34.0,34.0,-100.00,NW,312,4.0,7.0,99,0.00,,,0.15,0.000000,,2013-01-26 06:32:00,
2013-01-26 01:42:00,34.0,34.0,-100.00,NW,312,4.0,7.0,99,0.00,,,0.15,0.000000,,2013-01-26 06:42:00,
2013-01-26 01:52:00,34.0,34.0,-100.00,NW,312,4.0,7.0,99,0.00,,,0.15,0.000000,,2013-01-26 06:52:00,
2013-01-26 02:02:00,34.0,34.0,-100.00,NW,312,4.0,7.0,99,0.00,,,0.15,0.000000,,2013-01-26 07:02:00,
2013-01-26 02:33:00,32.0,32.0,-100.00,NNW,327,6.0,9.0,98,0.00,,,0.15,0.000000,,2013-01-26 07:33:00,
2013-01-26 02:42:00,32.0,32.0,-100.00,NNW,327,6.0,9.0,98,0.00,,,0.15,0.000000,,2013-01-26 07:42:00,
2013-01-26 02:52:00,32.0,32.0,-100.00,NNW,327,6.0,9.0,98,0.00,,,0.15,0.000000,,2013-01-26 07:52:00,
2013-01-26 03:02:00,32.0,32.0,-100.00,NNW,327,6.0,9.0,98,0.00,,,0.15,0.000000,,2013-01-26 08:02:00,
2013-01-26 03:32:00,31.0,31.0,-100.00,NW,319,6.0,9.0,98,0.00,,,0.15,0.000000,,2013-01-26 08:32:00,
2013-01-26 03:42:00,31.0,31.0,-100.00,NW,319,6.0,9.0,98,0.00,,,0.15,0.000000,,2013-01-26 08:42:00,
2013-01-26 03:54:00,31.0,31.0,-100.00,NW,319,6.0,9.0,98,0.00,,,0.15,0.000000,,2013-01-26 08:54:00,
2013-01-26 04:02:00,31.0,31.0,-100.00,NW,319,6.0,9.0,98,0.00,,,0.15,0.000000,,2013-01-26 09:02:00,
2013-01-26 04:32:00,30.0,29.0,-100.00,NW,311,5.0,11.0,98,0.00,,,0.15,0.000000,,2013-01-26 09:32:00,
2013-01-26 04:42:00,30.0,29.0,-100.00,NW,311,5.0,11.0,98,0.00,,,0.15,0.000000,,2013-01-26 09:42:00,
2013-01-26 04:52:00,30.0,29.0,-100.00,NW,311,5.0,11.0,98,0.00,,,0.15,0.000000,,2013-01-26 09:52:00,
2013-01-26 05:01:00,30.0,29.0,-100.00,NW,311,5.0,11.0,98,0.00,,,0.15,0.000000,,2013-01-26 10:01:00,
2013-01-26 05:32:00,29.0,26.0,-100.00,NW,324,6.0,10.0,90,0.00,,,0.15,0.000000,,2013-01-26 10:32:00,
2013-01-26 05:43:00,29.0,26.0,-100.00,NW,324,6.0,10.0,90,0.00,,,0.15,0.000000,,2013-01-26 10:43:00,
2013-01-26 05:52:00,29.0,26.0,-100.00,NW,324,6.0,10.0,90,0.00,,,0.15,0.000000,,2013-01-26 10:52:00,
2013-01-26 06:02:00,29.0,26.0,-100.00,NW,324,6.0,10.0,90,0.00,,,0.15,0.000000,,2013-01-26 11:02:00,
2013-01-26 06:32:00,28.0,24.0,-100.00,NW,319,5.0,10.0,83,0.00,,,0.15,0.000000,,2013-01-26 11:32:00,
2013-01-26 06:42:00,28.0,24.0,-100.00,NW,319,5.0,10.0,83,0.00,,,0.15,0.000000,,2013-01-26 11:42:00,
2013-01-26 06:53:00,28.0,24.0,-100.00,NW,319,5.0,10.0,83,0.00,,,0.15,0.000000,,2013-01-26 11:53:00,
2013-01-26 07:02:00,28.0,24.0,-100.00,NW,319,5.0,10.0,83,0.00,,,0.15,0.000000,,2013-01-26 12:02:00,
2013-01-26 07:33:00,29.0,19.0,-100.00,NW,318,7.0,14.0,65,0.00,,,0.15,0.000000,,2013-01-26 12:33:00,
2013-01-26 07:42:00,29.0,19.0,-100.00,NW,318,7.0,14.0,65,0.00,,,0.15,0.000000,,2013-01-26 12:42:00,
2013-01-26 07:53:00,29.0,19.0,-100.00,NW,318,7.0,14.0,65,0.00,,,0.15,0.000000,,2013-01-26 12:53:00,
2013-01-26 08:03:00,29.0,19.0,-100.00,NW,318,7.0,14.0,65,0.00,,,0.15,0.000000,,2013-01-26 13:03:00,
2013-01-26 08:33:00,30.0,18.0,-100.00,NW,320,6.0,12.0,61,0.00,,,0.15,4.000000,,2013-01-26 13:33:00,
2013-01-26 08:42:00,30.0,18.0,-100.00,NW,320,6.0,12.0,61,0.00,,,0.15,4.000000,,2013-01-26 13:42:00,
2013-01-26 08:53:00,30.0,18.0,-100.00,NW,320,6.0,12.0,61,0.00,,,0.15,4.000000,,2013-01-26 13:53:00,
2013-01-26 09:03:00,30.0,18.0,-100.00,NW,320,6.0,12.0,61,0.00,,,0.15,4.000000,,2013-01-26 14:03:00,
2013-01-26 09:32:00,31.0,16.0,-100.00,NW,325,7.0,12.0,54,0.00,,,0.15,37.000000,,2013-01-26 14:32:00,
2013-01-26 09:43:00,31.0,16.0,-100.00,NW,325,7.0,12.0,54,0.00,,,0.15,37.000000,,2013-01-26 14:43:00,
2013-01-26 09:53:00,31.0,16.0,-100.00,NW,325,7.0,12.0,54,0.00,,,0.15,37.000000,,2013-01-26 14:53:00,
2013-01-26 10:03:00,31.0,16.0,-100.00,NW,325,7.0,12.0,54,0.00,,,0.15,37.000000,,2013-01-26 15:03:00,
2013-01-26 10:33:00,33.0,17.0,-100.00,NW,313,6.0,11.0,51,0.00,,,0.15,107.000000,,2013-01-26 15:33:00,
2013-01-26 10:43:00,33.0,17.0,-100.00,NW,313,6.0,11.0,51,0.00,,,0.15,107.000000,,2013-01-26 15:43:00,
2013-01-26 10:53:00,33.0,17.0,-100.00,NW,313,6.0,11.0,51,0.00,,,0.15,107.000000,,2013-01-26 15:53:00,
2013-01-26 11:02:00,33.0,17.0,-100.00,NW,313,6.0,11.0,51,0.00,,,0.15,107.000000,,2013-01-26 16:02:00,
2013-01-26 11:33:00,34.0,14.0,-100.00,NW,314,5.0,9.0,44,0.00,,,0.15,170.000000,,2013-01-26 16:33:00,
2013-01-26 11:43:00,34.0,14.0,-100.00,NW,314,5.0,9.0,44,0.00,,,0.15,170.000000,,2013-01-26 16:43:00,
2013-01-26 11:53:00,34.0,14.0,-100.00,NW,314,5.0,9.0,44,0.00,,,0.15,170.000000,,2013-01-26 16:53:00,
2013-01-26 12:03:00,34.0,14.0,-100.00,NW,314,5.0,9.0,44,0.00,,,0.15,170.000000,,2013-01-26 17:03:00,
2013-01-26 12:33:00,37.0,16.0,-100.00,NW,314,5.0,10.0,41,0.00,,,0.15,221.000000,,2013-01-26 17:33:00,
2013-01-26 12:42:00,37.0,16.0,-100.00,NW,314,5.0,10.0,41,0.00,,,0.15,221.000000,,2013-01-26 17:42:00,
2013-01-26 12:53:00,37.0,16.0,-100.00,NW,314,5.0,10.0,41,0.00,,,0.15,221.000000,,2013-01-26 17:53:00,
2013-01-26 13:03:00,37.0,16.0,-100.00,NW,314,5.0,10.0,41,0.00,,,0.15,221.000000,,2013-01-26 18:03:00,
2013-01-26 13:33:00,41.0,15.0,-100.00,NW,324,4.0,9.0,34,0.00,,,0.15,351.000000,,2013-01-26 18:33:00,
2013-01-26 13:42:00,41.0,15.0,-100.00,NW,324,4.0,9.0,34,0.00,,,0.15,351.000000,,2013-01-26 18:42:00,
2013-01-26 13:53:00,41.0,15.0,-100.00,NW,324,4.0,9.0,34,0.00,,,0.15,351.000000,,2013-01-26 18:53:00,
2013-01-26 14:03:00,41.0,15.0,-100.00,NW,324,4.0,9.0,34,0.00,,,0.15,351.000000,,2013-01-26 19:03:00,
2013-01-26 14:33:00,43.0,13.0,-100.00,NW,313,5.0,9.0,29,0.00,,,0.13,488.000000,,2013-01-26 19:33:00,
2013-01-26 14:43:00,43.0,13.0,-100.00,NW,313,5.0,9.0,29,0.00,,,0.13,488.000000,,2013-01-26 19:43:00,
2013-01-26 14:53:00,43.0,13.0,-100.00,NW,313,5.0,9.0,29,0.00,,,0.13,488.000000,,2013-01-26 19:53:00,
2013-01-26 15:02:00,43.0,13.0,-100.00,NW,313,5.0,9.0,29,0.00,,,0.13,488.000000,,2013-01-26 20:02:00,
2013-01-26 15:32:00,45.0,15.0,-100.00,NW,313,4.0,10.0,30,0.00,,,0.09,437.000000,,2013-01-26 20:32:00,
2013-01-26 15:42:00,45.0,15.0,-100.00,NW,313,4.0,10.0,30,0.00,,,0.09,437.000000,,2013-01-26 20:42:00,
2013-01-26 15:52:00,45.0,15.0,-100.00,NW,313,4.0,10.0,30,0.00,,,0.09,437.000000,,2013-01-26 20:52:00,
2013-01-26 16:03:00,45.0,15.0,-100.00,NW,313,4.0,10.0,30,0.00,,,0.09,437.000000,,2013-01-26 21:03:00,
2013-01-26 16:32:00,42.0,11.0,-100.00,NW,319,4.0,10.0,28,0.00,,,0.01,359.000000,,2013-01-26 21:32:00,
2013-01-26 16:43:00,42.0,11.0,-100.00,NW,319,4.0,10.0,28,0.00,,,0.01,359.000000,,2013-01-26 21:43:00,
2013-01-26 16:52:00,42.0,11.0,-100.00,NW,319,4.0,10.0,28,0.00,,,0.01,359.000000,,2013-01-26 21:52:00,
2013-01-26 17:02:00,42.0,11.0,-100.00,NW,319,4.0,10.0,28,0.00,,,0.01,359.000000,,2013-01-26 22:02:00,
2013-01-26 17:32:00,40.0,13.0,-100.00,NW,320,4.0,6.0,33,0.00,,,0.00,82.000000,,2013-01-26 22:32:00,
2013-01-26 17:42:00,40.0,13.0,-100.00,NW,320,4.0,6.0,33,0.00,,,0.00,82.000000,,2013-01-26 22:42:00,
2013-01-26 17:52:00,40.0,13.0,-100.00,NW,320,4.0,6.0,33,0.00,,,0.00,82.000000,,2013-01-26 22:52:00,
2013-01-26 18:02:00,40.0,13.0,-100.00,NW,320,4.0,6.0,33,0.00,,,0.00,82.000000,,2013-01-26 23:02:00,
2013-01-26 18:33:00,37.0,11.0,-100.00,NNW,341,5.0,6.0,34,0.00,,,0.00,20.000000,,2013-01-26 23:33:00,
2013-01-26 18:42:00,37.0,11.0,-100.00,NNW,341,5.0,6.0,34,0.00,,,0.00,20.000000,,2013-01-26 23:42:00,
2013-01-26 18:52:00,37.0,11.0,-100.00,NNW,341,5.0,6.0,34,0.00,,,0.00,20.000000,,2013-01-26 23:52:00,
2013-01-26 19:02:00,37.0,11.0,-100.00,NNW,341,5.0,6.0,34,0.00,,,0.00,20.000000,,2013-01-27 00:02:00,
2013-01-26 19:32:00,36.0,12.0,-100.00,North,357,1.0,6.0,36,0.00,,,0.00,0.000000,,2013-01-27 00:32:00,
2013-01-26 19:42:00,36.0,12.0,-100.00,North,357,1.0,6.0,36,0.00,,,0.00,0.000000,,2013-01-27 00:42:00,
2013-01-26 19:52:00,36.0,12.0,-100.00,North,357,1.0,6.0,36,0.00,,,0.00,0.000000,,2013-01-27 00:52:00,
2013-01-26 20:01:00,36.0,12.0,-100.00,North,357,1.0,6.0,36,0.00,,,0.00,0.000000,,2013-01-27 01:01:00,
2013-01-26 20:32:00,35.0,11.0,-100.00,WNW,297,0.0,4.0,37,0.00,,,0.00,0.000000,,2013-01-27 01:32:00,
2013-01-26 20:42:00,35.0,11.0,-100.00,WNW,297,0.0,4.0,37,0.00,,,0.00,0.000000,,2013-01-27 01:42:00,
2013-01-26 20:52:00,35.0,11.0,-100.00,WNW,297,0.0,4.0,37,0.00,,,0.00,0.000000,,2013-01-27 01:52:00,
2013-01-26 21:01:00,35.0,11.0,-100.00,WNW,297,0.0,4.0,37,0.00,,,0.00,0.000000,,2013-01-27 02:01:00,
2013-01-26 21:32:00,36.0,10.0,-100.00,NNW,346,0.0,4.0,33,0.00,,,0.00,0.000000,,2013-01-27 02:32:00,
2013-01-26 21:42:00,36.0,10.0,-100.00,NNW,346,0.0,4.0,33,0.00,,,0.00,0.000000,,2013-01-27 02:42:00,
2013-01-26 21:52:00,36.0,10.0,-100.00,NNW,346,0.0,4.0,33,0.00,,,0.00,0.000000,,2013-01-27 02:52:00,
2013-01-26 22:02:00,36.0,10.0,-100.00,NNW,346,0.0,4.0,33,0.00,,,0.00,0.000000,,2013-01-27 03:02:00,
2013-01-26 22:32:00,36.0,10.0,-100.00,NNW,330,0.0,0.0,34,0.00,,,0.00,0.000000,,2013-01-27 03:32:00,
2013-01-26 22:42:00,36.0,10.0,-100.00,NNW,330,0.0,0.0,34,0.00,,,0.00,0.000000,,2013-01-27 03:42:00,
2013-01-26 22:52:00,36.0,10.0,-100.00,NNW,330,0.0,0.0,34,0.00,,,0.00,0.000000,,2013-01-27 03:52:00,
2013-01-26 23:02:00,36.0,10.0,-100.00,NNW,330,0.0,0.0,34,0.00,,,0.00,0.000000,,2013-01-27 04:02:00,
2013-01-26 23:32:00,38.0,9.0,-100.00,North,352,0.0,0.0,30,0.00,,,0.00,0.000000,,2013-01-27 04:32:00,
2013-01-26 23:42:00,38.0,9.0,-100.00,North,352,0.0,0.0,30,0.00,,,0.00,0.000000,,2013-01-27 04:42:00,
2013-01-26 23:52:00,38.0,9.0,-100.00,North,352,0.0,0.0,30,0.00,,,0.00,0.000000,,2013-01-27 04:52:00,